CW3860 Weather Reports


time (UTC)temp
F
wind
direction
speed
knots
gust
knots
rain 1hr
in
rain 24hr
in
rain mn
in
humidity
%
barometer
mb
20260508011530 64 336 0.9 1.7 0.00 0.00 0.00 83 1013.0
20260508011031 64 331 0.0 0.9 0.00 0.00 0.00 83 1013.1
20260508010530 64 330 0.0 0.9 0.00 0.00 0.00 83 1013.1
20260508010030 64 331 0.9 0.9 0.00 0.00 0.00 83 1013.1
20260508005530 64 331 0.9 1.7 0.00 0.00 0.00 83 1013.2
20260508005030 64 331 0.0 0.9 0.00 0.00 0.00 83 1013.1
20260508004531 64 330 0.0 0.9 0.00 0.00 0.00 83 1013.2
20260508004030 64 331 0.0 0.0 0.00 0.00 0.00 83 1013.3
20260508003531 64 331 0.0 0.9 0.00 0.00 0.00 83 1013.3
20260508003031 64 330 0.0 0.9 0.00 0.00 0.00 83 1013.3
20260508002530 64 330 0.9 0.9 0.00 0.00 0.00 83 1013.3
20260508002031 64 331 0.0 0.0 0.00 0.00 0.00 83 1013.3
20260508001530 64 331 0.0 0.9 0.00 0.00 0.00 83 1013.4
20260508001030 64 330 0.0 0.9 0.00 0.00 0.00 83 1013.4
20260508000531 64 330 0.0 0.9 0.00 0.00 0.00 83 1013.4
20260508000032 64 331 0.0 0.9 0.00 0.00 0.00 83 1013.4
20260507235531 64 331 0.9 0.9 0.00 0.00 0.00 83 1013.5
20260507235031 64 330 0.0 1.7 0.00 0.00 0.00 83 1013.5
20260507234531 64 331 0.9 0.9 0.00 0.00 0.00 83 1013.6
20260507234031 63 331 0.0 0.9 0.00 0.00 0.00 83 1013.7
20260507233531 63 331 0.0 0.9 0.00 0.00 0.00 83 1013.8
20260507233031 63 330 0.0 0.0 0.00 0.00 0.00 83 1013.8
20260507232534 63 331 0.0 0.9 0.00 0.00 0.00 83 1013.8
20260507232031 63 331 0.0 1.7 0.00 0.00 0.00 83 1013.8
20260507231531 63 330 0.0 1.7 0.00 0.00 0.00 83 1013.9
20260507231031 63 331 0.9 0.9 0.00 0.00 0.00 83 1013.9
20260507230531 63 331 0.0 0.9 0.00 0.00 0.00 83 1014.0
20260507230031 63 331 0.0 0.9 0.00 0.00 0.00 83 1014.0
20260507225531 63 330 0.0 1.7 0.00 0.00 0.00 83 1014.0
20260507225031 63 331 0.0 2.6 0.00 0.00 0.00 82 1014.1
20260507224531 64 321 0.9 1.7 0.00 0.00 0.00 82 1014.2
20260507224031 64 297 0.0 1.7 0.00 0.00 0.00 82 1014.2
20260507223541 64 295 0.9 1.7 0.00 0.00 0.00 82 1014.2
20260507223035 64 319 1.7 1.7 0.00 0.00 0.00 82 1014.2
20260507222531 64 312 0.0 0.9 0.00 0.00 0.00 82 1014.2
20260507222031 64 312 0.0 0.9 0.00 0.00 0.00 81 1014.2
20260507221531 64 312 0.0 0.9 0.00 0.00 0.00 82 1014.1
20260507221032 64 312 0.0 0.9 0.00 0.00 0.00 82 1014.1
20260507220534 64 312 0.0 0.9 0.00 0.00 0.00 82 1014.2
20260507220032 64 311 0.0 0.0 0.00 0.00 0.00 82 1014.1
20260507215531 64 311 0.0 0.0 0.00 0.00 0.00 83 1014.1
20260507215032 64 312 0.0 0.0 0.00 0.00 0.00 83 1014.1
20260507214532 64 312 0.0 0.0 0.00 0.00 0.00 83 1014.0
20260507214031 64 311 0.0 0.9 0.00 0.00 0.00 83 1014.0
20260507213531 64 312 0.0 0.9 0.00 0.00 0.00 83 1014.1
20260507213031 64 312 0.0 0.9 0.00 0.00 0.00 83 1014.1
20260507212531 64 325 0.0 0.9 0.00 0.00 0.00 83 1014.1
20260507212032 64 325 0.9 0.9 0.00 0.00 0.00 83 1014.0
20260507211531 64 325 0.0 1.7 0.00 0.00 0.00 83 1014.1
20260507211032 64 318 0.9 1.7 0.00 0.00 0.00 82 1014.0
20260507210531 64 317 0.9 1.7 0.00 0.00 0.00 82 1014.0
20260507210031 64 329 0.9 0.9 0.00 0.00 0.00 82 1014.0
20260507205531 65 329 0.0 0.9 0.00 0.00 0.00 82 1014.0
20260507205034 65 329 0.9 1.7 0.00 0.00 0.00 81 1014.0
20260507204535 65 319 0.9 1.7 0.00 0.00 0.00 81 1014.0
20260507204031 65 300 0.9 1.7 0.00 0.00 0.00 81 1014.0
20260507203531 65 176 0.0 0.9 0.00 0.00 0.00 81 1014.1
20260507203031 66 174 0.0 0.9 0.00 0.00 0.00 81 1014.0
20260507202531 66 173 0.0 0.9 0.00 0.00 0.00 81 1014.1
20260507202031 66 174 0.0 0.9 0.00 0.00 0.00 81 1014.1
20260507201534 66 174 0.9 1.7 0.00 0.00 0.00 81 1014.0
20260507201031 66 190 0.9 1.7 0.00 0.00 0.00 80 1014.1
20260507200531 66 210 0.9 2.6 0.00 0.00 0.00 80 1014.1
20260507200032 66 192 0.9 2.6 0.00 0.00 0.00 80 1014.1
20260507195531 66 210 0.0 1.7 0.00 0.00 0.00 80 1014.1
20260507195031 66 186 0.9 2.6 0.00 0.00 0.00 80 1014.2
20260507194531 66 194 0.0 1.7 0.00 0.00 0.00 80 1014.1
20260507194031 67 190 0.9 2.6 0.00 0.00 0.00 80 1014.1
20260507193531 67 153 0.9 2.6 0.00 0.00 0.00 80 1014.1
20260507193031 67 109 2.6 2.6 0.00 0.00 0.00 80 1014.1
20260507192531 67 147 0.9 2.6 0.00 0.00 0.00 80 1014.1
20260507192032 67 119 1.7 3.5 0.00 0.00 0.00 79 1014.1
20260507191534 67 144 0.9 2.6 0.00 0.00 0.00 79 1014.1
20260507191031 67 133 0.9 2.6 0.00 0.00 0.00 79 1013.9
20260507190534 67 109 1.7 1.7 0.00 0.00 0.00 79 1013.8
20260507190031 67 111 1.7 2.6 0.00 0.00 0.00 79 1013.8
20260507185534 67 148 0.9 2.6 0.00 0.00 0.00 79 1013.8
20260507185031 67 105 1.7 3.5 0.00 0.00 0.00 79 1013.8
20260507184532 67 121 0.9 2.6 0.00 0.00 0.00 79 1013.8
20260507184032 67 114 1.7 3.5 0.00 0.00 0.00 79 1013.8
20260507183534 67 199 1.7 5.2 0.00 0.00 0.00 79 1013.9
20260507183031 67 148 2.6 3.5 0.00 0.00 0.00 79 1013.8
20260507182531 67 111 1.7 3.5 0.00 0.00 0.00 79 1013.8
20260507182031 67 146 1.7 3.5 0.00 0.00 0.00 79 1013.8
20260507181531 67 96 2.6 4.3 0.00 0.00 0.00 79 1013.8
20260507181032 67 105 2.6 2.6 0.00 0.00 0.00 78 1013.7
20260507180531 68 142 1.7 3.5 0.00 0.00 0.00 78 1013.7
20260507180031 68 128 2.6 3.5 0.00 0.00 0.00 78 1013.7
20260507175532 68 155 1.7 3.5 0.00 0.00 0.00 77 1013.6
20260507175031 68 96 1.7 4.3 0.00 0.00 0.00 77 1013.6
20260507174531 68 96 0.9 4.3 0.00 0.00 0.00 76 1013.4
20260507174032 68 97 0.9 3.5 0.00 0.00 0.00 75 1013.3
20260507173535 68 106 1.7 2.6 0.00 0.00 0.00 74 1013.3
20260507173032 68 117 1.7 3.5 0.00 0.00 0.00 75 1013.2
20260507172531 69 112 1.7 2.6 0.00 0.00 0.00 74 1013.0
20260507172031 69 95 0.9 2.6 0.00 0.00 0.00 73 1013.0
20260507171532 69 101 0.9 1.7 0.00 0.00 0.00 71 1012.9
20260507171032 69 103 2.6 2.6 0.00 0.00 0.00 71 1013.0
20260507170535 69 98 1.7 2.6 0.00 0.00 0.00 70 1013.0
20260507170035 69 114 0.9 1.7 0.00 0.00 0.00 71 1013.1
20260507165535 68 128 0.0 2.6 0.00 0.00 0.00 70 1013.1
20260507165032 68 142 1.7 2.6 0.00 0.00 0.00 73 1013.2
20260507164532 68 102 2.6 2.6 0.00 0.00 0.00 74 1013.1
20260507164032 68 141 2.6 4.3 0.00 0.00 0.00 73 1013.1
20260507163533 68 106 0.9 2.6 0.00 0.00 0.00 75 1013.2
20260507163032 68 130 0.9 2.6 0.00 0.00 0.00 75 1013.1
20260507162532 68 149 0.9 3.5 0.00 0.00 0.00 76 1013.1
20260507162032 68 91 1.7 4.3 0.00 0.00 0.00 76 1013.2
20260507161532 68 110 2.6 4.3 0.00 0.00 0.00 76 1013.3
20260507161032 68 129 0.0 2.6 0.00 0.00 0.00 75 1013.3
20260507160532 68 132 0.9 3.5 0.00 0.00 0.00 74 1013.4
20260507160032 68 101 1.7 3.5 0.00 0.00 0.00 74 1013.3
20260507155532 68 115 0.9 2.6 0.00 0.00 0.00 73 1013.3
20260507155033 68 125 1.7 3.5 0.00 0.00 0.00 74 1013.2
20260507154535 68 107 1.7 2.6 0.00 0.00 0.00 74 1013.2
20260507154035 68 103 0.9 2.6 0.00 0.00 0.00 75 1013.2
20260507153532 68 113 1.7 2.6 0.00 0.00 0.00 75 1013.3
20260507153032 68 138 0.9 3.5 0.00 0.00 0.00 75 1013.3
20260507152532 69 123 0.9 3.5 0.00 0.00 0.00 75 1013.3
20260507152032 69 117 0.9 2.6 0.00 0.00 0.00 74 1013.3
20260507151532 69 99 1.7 3.5 0.00 0.00 0.00 73 1013.2
20260507151032 69 27 0.0 2.6 0.00 0.00 0.00 75 1013.3
20260507150535 68 153 0.9 2.6 0.00 0.00 0.00 76 1013.3
20260507150032 68 115 0.9 2.6 0.00 0.00 0.00 75 1013.3
20260507145532 69 141 2.6 3.5 0.00 0.00 0.00 75 1013.4
20260507145035 69 107 2.6 4.3 0.00 0.00 0.00 76 1013.4
20260507144532 69 126 0.9 3.5 0.00 0.00 0.00 76 1013.4
20260507144035 69 144 0.9 2.6 0.00 0.00 0.00 78 1013.4
20260507143532 68 123 1.7 3.5 0.00 0.00 0.00 78 1013.5
20260507143035 68 110 1.7 2.6 0.00 0.00 0.00 77 1013.5
20260507142532 68 338 1.7 1.7 0.00 0.00 0.00 78 1013.6
20260507142032 68 101 1.7 2.6 0.00 0.00 0.00 79 1013.5
20260507141535 68 94 1.7 2.6 0.00 0.00 0.00 78 1013.6
20260507141032 69 111 1.7 2.6 0.00 0.00 0.00 78 1013.7
20260507140532 69 65 0.9 1.7 0.00 0.00 0.00 77 1013.6
20260507140032 69 131 0.9 2.6 0.00 0.00 0.00 77 1013.6
20260507135532 69 131 0.0 3.5 0.00 0.00 0.00 77 1013.6
20260507135032 69 82 0.0 3.5 0.00 0.00 0.00 76 1013.6
20260507134532 69 111 1.7 5.2 0.00 0.00 0.00 76 1013.5
20260507134032 69 111 4.3 5.2 0.00 0.00 0.00 76 1013.5
20260507133533 70 125 0.9 3.5 0.00 0.00 0.00 75 1013.5
20260507133033 70 103 1.7 3.5 0.00 0.00 0.00 75 1013.5
20260507132535 69 92 1.7 2.6 0.00 0.00 0.00 76 1013.6
20260507132032 69 105 2.6 5.2 0.00 0.00 0.00 76 1013.5
20260507131533 69 117 2.6 6.1 0.00 0.00 0.00 75 1013.7
20260507131032 70 99 1.7 5.2 0.00 0.00 0.00 76 1013.7
20260507130532 70 99 3.5 5.2 0.00 0.00 0.00 76 1013.7
20260507130033 70 117 1.7 5.2 0.00 0.00 0.00 75 1013.7
20260507125532 70 105 3.5 4.3 0.00 0.00 0.00 74 1013.6
20260507125035 70 92 1.7 4.3 0.00 0.00 0.00 75 1013.7
20260507124532 70 98 3.5 3.5 0.00 0.00 0.00 74 1013.7
20260507124032 70 96 2.6 3.5 0.00 0.00 0.00 74 1013.8
20260507123532 70 121 2.6 6.1 0.00 0.00 0.00 73 1013.8
20260507123032 70 101 1.7 5.2 0.00 0.00 0.00 73 1013.7
20260507122532 70 99 1.7 4.3 0.00 0.00 0.00 73 1013.8
20260507122032 71 105 1.7 2.6 0.00 0.00 0.00 72 1013.7
20260507121532 71 110 2.6 4.3 0.00 0.00 0.00 71 1013.7
20260507121032 71 88 2.6 4.3 0.00 0.00 0.00 71 1013.6
20260507120532 70 90 2.6 4.3 0.00 0.00 0.00 71 1013.7
20260507120032 71 115 1.7 3.5 0.00 0.00 0.00 71 1013.6
20260507115533 71 112 2.6 4.3 0.00 0.00 0.00 70 1013.7
20260507115035 71 5 0.9 4.3 0.00 0.00 0.00 70 1013.6
20260507114532 71 109 1.7 3.5 0.00 0.00 0.00 72 1013.5
20260507114032 70 91 2.6 4.3 0.00 0.00 0.00 72 1013.5
20260507113532 71 90 1.7 3.5 0.00 0.00 0.00 71 1013.5
20260507113033 71 94 3.5 4.3 0.00 0.00 0.00 71 1013.5
20260507112532 71 98 1.7 4.3 0.00 0.00 0.00 71 1013.4
20260507112032 71 96 1.7 4.3 0.00 0.00 0.00 72 1013.4
20260507111532 70 92 1.7 4.3 0.00 0.00 0.00 73 1013.4
20260507111033 70 94 3.5 3.5 0.00 0.00 0.00 73 1013.4
20260507110533 70 55 0.9 3.5 0.00 0.00 0.00 74 1013.5
20260507110032 71 78 1.7 3.5 0.00 0.00 0.00 74 1013.6
20260507105532 70 11 1.7 4.3 0.00 0.00 0.00 74 1013.7
20260507105032 71 96 3.5 6.1 0.00 0.00 0.00 73 1013.7
20260507104532 71 10 0.9 2.6 0.00 0.00 0.00 73 1013.7
20260507104032 70 98 1.7 2.6 0.00 0.00 0.00 74 1013.8
20260507103533 70 105 1.7 5.2 0.00 0.00 0.00 74 1013.7
20260507103033 70 171 0.9 3.5 0.00 0.00 0.00 76 1013.7
20260507102532 71 105 0.9 2.6 0.00 0.00 0.00 74 1013.7
20260507102032 71 92 1.7 3.5 0.00 0.00 0.00 75 1013.7
20260507101533 71 32 0.0 2.6 0.00 0.00 0.00 74 1013.8
20260507101033 71 42 0.9 2.6 0.00 0.00 0.00 74 1013.8
20260507100533 71 355 0.9 3.5 0.00 0.00 0.00 75 1013.8
20260507100033 70 42 0.9 2.6 0.00 0.00 0.00 75 1013.8
20260507095533 70 92 1.7 5.2 0.00 0.00 0.00 75 1013.7
20260507095032 71 345 0.9 3.5 0.00 0.00 0.00 75 1013.7
20260507094533 70 0 1.7 2.6 0.00 0.00 0.00 74 1013.6
20260507094033 71 33 0.9 1.7 0.00 0.00 0.00 75 1013.7
20260507093533 70 14 0.9 2.6 0.00 0.00 0.00 75 1013.7
20260507093033 70 128 1.7 2.6 0.00 0.00 0.00 74 1013.8
20260507092532 70 29 0.0 3.5 0.00 0.00 0.00 75 1013.8
20260507092033 70 5 0.9 2.6 0.00 0.00 0.00 74 1013.8
20260507091534 70 36 0.9 3.5 0.00 0.00 0.00 74 1013.8
20260507091036 70 159 0.9 3.5 0.00 0.00 0.00 74 1013.7
20260507090533 70 192 1.7 5.2 0.00 0.00 0.00 73 1013.8
20260507090033 70 306 1.7 1.7 0.00 0.00 0.00 74 1013.9
20260507085533 70 24 0.9 5.2 0.00 0.00 0.00 73 1013.9
20260507085033 70 345 2.6 3.5 0.00 0.00 0.00 72 1013.9
20260507084533 70 165 0.9 5.2 0.00 0.00 0.00 71 1013.9
20260507084033 70 169 0.9 3.5 0.00 0.00 0.00 71 1013.8
20260507083533 71 11 3.5 3.5 0.00 0.00 0.00 69 1013.7
20260507083033 70 339 0.9 1.7 0.00 0.00 0.00 71 1013.8
20260507082533 69 351 0.9 4.3 0.00 0.00 0.00 72 1013.7
20260507082033 69 5 0.9 5.2 0.00 0.00 0.00 71 1013.7
20260507081536 68 26 0.0 5.2 0.00 0.00 0.00 73 1013.6
20260507081033 68 355 1.7 2.6 0.00 0.00 0.00 73 1013.5
20260507080533 68 25 1.7 3.5 0.00 0.00 0.00 76 1013.5
20260507080033 68 5 2.6 3.5 0.00 0.00 0.00 77 1013.5
20260507075536 68 342 0.0 1.7 0.00 0.00 0.00 77 1013.4
20260507075033 68 107 0.0 2.6 0.00 0.00 0.00 77 1013.4
20260507074533 69 355 0.9 1.7 0.00 0.00 0.00 76 1013.4
20260507074033 69 348 0.9 3.5 0.00 0.00 0.00 76 1013.4
20260507073533 69 49 0.9 2.6 0.00 0.00 0.00 75 1013.4
20260507073034 70 88 2.6 2.6 0.00 0.00 0.00 74 1013.4
20260507072533 70 112 1.7 3.5 0.00 0.00 0.00 73 1013.4
20260507072033 71 101 0.9 1.7 0.00 0.00 0.00 73 1013.4
20260507071537 71 0 0.0 2.6 0.00 0.00 0.00 74 1013.4
20260507071033 70 23 0.9 2.6 0.00 0.00 0.00 75 1013.5
20260507070534 70 55 0.9 2.6 0.00 0.00 0.00 74 1013.5
20260507070034 70 252 0.0 1.7 0.00 0.00 0.00 76 1013.4
20260507065533 68 97 1.7 1.7 0.00 0.00 0.00 78 1013.3
20260507065036 68 127 0.0 0.9 0.00 0.00 0.00 78 1013.3
20260507064533 68 95 0.9 2.6 0.00 0.00 0.00 78 1013.3
20260507064033 68 101 2.6 2.6 0.00 0.00 0.00 79 1013.2
20260507063533 67 331 0.0 0.9 0.00 0.00 0.00 79 1013.1
20260507063036 67 331 0.0 0.9 0.00 0.00 0.00 79 1013.1
20260507062533 67 330 0.0 1.7 0.00 0.00 0.00 79 1013.2
20260507062033 67 330 0.9 0.9 0.00 0.00 0.00 79 1013.1
20260507061533 67 259 0.0 0.0 0.00 0.00 0.00 79 1013.2
20260507061033 66 259 0.0 0.9 0.00 0.00 0.00 79 1013.2
20260507060533 66 260 0.0 0.9 0.00 0.00 0.00 80 1013.2
20260507060033 66 200 0.0 0.9 0.00 0.00 0.00 79 1013.2
20260507055533 66 200 0.0 1.7 0.00 0.00 0.00 80 1013.1
20260507055036 66 339 0.0 0.9 0.00 0.00 0.00 80 1013.1
20260507054536 66 338 0.0 0.0 0.00 0.00 0.00 80 1013.2
20260507054034 65 339 0.0 0.9 0.00 0.00 0.00 80 1013.1
20260507053533 65 339 0.0 0.9 0.00 0.00 0.00 80 1013.0
20260507053036 65 339 0.0 0.9 0.00 0.00 0.00 80 1012.9
20260507052534 65 338 0.0 0.9 0.00 0.00 0.00 80 1012.9
20260507052033 65 338 0.0 1.7 0.00 0.00 0.00 80 1012.9
20260507051533 65 5 1.7 2.6 0.00 0.00 0.00 81 1012.8
20260507051033 65 330 0.9 3.5 0.00 0.00 0.00 81 1012.8
20260507050533 65 338 0.0 2.6 0.00 0.00 0.00 80 1012.7
20260507050033 65 332 0.0 1.7 0.00 0.00 0.00 80 1012.6
20260507045533 65 321 0.0 2.6 0.00 0.00 0.00 80 1012.4
20260507045033 65 340 0.9 2.6 0.00 0.00 0.00 80 1012.4
20260507044536 65 310 0.0 2.6 0.00 0.00 0.00 80 1012.4
20260507044033 65 12 0.9 1.7 0.00 0.00 0.00 81 1012.3
20260507043533 65 355 0.9 2.6 0.00 0.00 0.00 81 1012.3
20260507043033 65 325 0.0 2.6 0.00 0.00 0.00 81 1012.2
20260507042533 65 332 0.9 3.5 0.00 0.00 0.00 81 1012.2
20260507042033 64 355 0.9 2.6 0.00 0.00 0.00 82 1012.1
20260507041536 64 333 1.7 2.6 0.00 0.00 0.00 82 1012.0
20260507041036 64 309 0.9 2.6 0.00 0.00 0.00 82 1011.9
20260507040533 64 329 0.9 2.6 0.00 0.00 0.00 83 1011.8
20260507040034 64 323 0.0 4.3 0.00 0.00 0.00 83 1011.8
20260507035533 64 280 4.3 5.2 0.00 0.00 0.00 84 1011.7
20260507035033 64 332 0.9 2.6 0.00 0.00 0.00 85 1011.7
20260507034533 64 161 1.7 3.5 0.00 0.00 0.00 86 1011.6
20260507034033 65 335 2.6 3.5 0.00 0.00 0.00 86 1011.6
20260507033533 65 350 0.9 2.6 0.00 0.00 0.00 86 1011.6
20260507033033 65 331 0.9 1.7 0.00 0.00 0.00 86 1011.6
20260507032534 65 347 1.7 2.6 0.00 0.00 0.00 86 1011.6
20260507032033 65 332 0.0 3.5 0.00 0.00 0.00 86 1011.4
20260507031533 65 355 1.7 2.6 0.00 0.00 0.00 86 1011.4
20260507031034 65 355 0.9 3.5 0.00 0.00 0.00 86 1011.4
20260507030534 65 5 0.9 1.7 0.00 0.00 0.00 86 1011.4
20260507030033 65 334 0.0 2.6 0.00 0.00 0.00 85 1011.4
20260507025537 65 327 0.0 2.6 0.00 0.00 0.00 85 1011.3
20260507025033 65 322 0.9 2.6 0.00 0.00 0.00 85 1011.3
20260507024533 65 348 0.9 2.6 0.00 0.00 0.00 84 1011.2
20260507024034 65 337 0.9 2.6 0.00 0.00 0.00 83 1011.1
20260507023534 65 333 0.9 2.6 0.00 0.00 0.00 83 1011.1
20260507023034 65 333 0.9 2.6 0.00 0.00 0.00 82 1011.2
20260507022537 65 346 0.9 2.6 0.00 0.00 0.00 82 1011.1
20260507022034 65 325 0.9 3.5 0.00 0.00 0.00 81 1011.1
20260507021535 65 331 0.9 2.6 0.00 0.00 0.00 79 1011.0
20260507021034 65 290 0.0 2.6 0.00 0.00 0.00 78 1010.9
20260507020531 65 335 1.7 2.6 0.00 0.00 0.00 78 1010.9
20260507020031 65 295 0.9 2.6 0.00 0.00 0.00 78 1010.9
20260507015531 65 349 0.9 2.6 0.00 0.00 0.00 77 1010.9
20260507015031 65 327 0.9 1.7 0.00 0.00 0.00 77 1010.9
20260507014531 65 340 0.9 1.7 0.00 0.00 0.00 77 1010.9
20260507014031 65 340 0.0 1.7 0.00 0.00 0.00 77 1010.9
20260507013531 65 340 0.9 1.7 0.00 0.00 0.00 77 1010.9
20260507013031 65 331 0.9 3.5 0.00 0.00 0.00 77 1010.8
20260507012531 65 346 0.9 2.6 0.00 0.00 0.00 77 1010.8
20260507012031 65 338 0.0 2.6 0.00 0.00 0.00 77 1010.8